Starlink 30292

operational
NORAD ID: 57844 Int'l Des: 2023-141 Owner: SPXS Country: US Constellation: starlink
LEOCIRCULAR

关于 Starlink 30292

正在加载描述...

实时位置

正在加载3D地球...

即将过境

高度历史

Altitude vs Time

uPlot chart will show altitude changes over time

两行轨道根数

1 57844U 23141E 25351.26359708 .00002084 00000-0 82510-4 0 9999
2 57844 53.1623 306.6069 0001168 85.6295 274.4839 15.30181457127711
Epoch: Dec 17, 2025 • Age: 8 hours

当前状态

高度 480.1 km
速度 7.63 km/s
星下点 49.13°N, 60.93°E
发射日期 Sep 12, 2023
运行时间 2.2 years
类型 internet

技术详情

分类 Payload
质量 730.00 kg
干质量 700.00 kg
总质量 730.00 kg
长度 0.30 m
直径 4.10 m
跨度 29.00 m
形状 Box + pan
制造商 SPXS
平台类型 Starlink V2M
阶段状态 In Orbit
所有者/国家 SPXS/US

大型星座

Loading constellations...